Home > Time Zones > World Clock > Weather > Chile > Arica > Past weeks

Flag for Chile Weather past 2 weeks in Arica, Chile

Now
70 °F

Passing clouds.


Feels Like: 70 °F
Forecast: 64 / 78 °F
Wind: N/A

Location: Arica Airport

Current Time: Apr 21, 2015 at 6:53:46 AM

Latest Report: Apr 21, 2015 at 6:00 AM


Visibility: N/A

Pressure: 29.92 "Hg

Humidity: 73%

Dew point: 61 °F

Location of AricaLocation

Historic Weather in Arica — Graph

°F

Arica temperature yesterday

Maximum temperature yesterday: 77 °F (at 1:00 PM)
Minimum temperature yesterday: 54 °F (at 12:02 AM)
Average temperature yesterday: 72 °F

Past Weeks' High & Low Weather Summary

 TemperatureHumidityPressure
High77 °F (Apr 8, 1:00 PM)94% (Apr 19, 9:00 AM)30.24 "Hg (Apr 19, 9:00 AM)
Low50 °F (Apr 19, 9:00 AM)27% (Apr 8, 10:00 PM)29.77 "Hg (Apr 11, 5:00 PM)
Average72 °F67%29.90 "Hg
* Reported Apr 6 5:00 AM — Apr 21 5:00 AM, Arica, Weather by CustomWeather, © 2015

Note: Actual official high and low records may vary slightly from our data, if they occured in-between our weather recording intervals... More about our weather records

Advertising

Arica weather history for previous 24 hours

 ConditionsComfort  
Time TempWeatherWind HumidityBarometerVisibility
5:00 AM
Tue, Apr 21
72 °FPassing clouds.5 mph65%29.92 "HgN/A
4:00 AM72 °FPassing clouds.5 mph61%29.92 "HgN/A
3:00 AM72 °FPassing clouds.3 mph65%29.95 "HgN/A
2:00 AM70 °FPassing clouds.5 mph64%29.98 "HgN/A
1:00 AM68 °FPassing clouds.2 mph69%30.01 "HgN/A
12:00 AM70 °FPassing clouds.2 mph73%30.01 "HgN/A
11:00 PM
Mon, Apr 20
70 °FClear.1 mph73%30.01 "Hg10 mi
10:00 PM70 °FClear.2 mph78%29.98 "Hg10 mi
9:00 PM72 °FClear.6 mph73%29.98 "Hg10 mi
8:00 PM72 °FClear.8 mph73%29.95 "Hg10 mi
7:00 PM73 °FSunny.12 mph69%29.92 "Hg10 mi
6:00 PM73 °FSunny.12 mph65%29.92 "Hg10 mi
5:00 PM75 °FSunny.14 mph57%29.89 "Hg10 mi
4:00 PM77 °FSunny.16 mph57%29.89 "Hg10 mi
3:00 PM77 °FSunny.17 mph54%29.92 "Hg10 mi
2:00 PM77 °FSunny.15 mph57%29.92 "Hg10 mi
1:00 PM77 °FSunny.14 mph57%29.95 "Hg10 mi
12:00 PM75 °FOvercast.12 mph57%29.98 "HgN/A
11:00 AM75 °FOvercast.7 mph57%29.95 "HgN/A
10:00 AM73 °FOvercast.2 mph65%29.95 "HgN/A
9:00 AM73 °FOvercast.2 mph65%29.92 "HgN/A
8:00 AM72 °FOvercast.2 mph69%29.92 "HgN/A
7:00 AM72 °FOvercast.No wind69%29.89 "HgN/A
6:00 AM72 °FOvercast.2 mph69%29.89 "HgN/A
Weather by CustomWeather, © 2015

See weather overviewHow to use our weather pages